Location: Marsån
(66.4167°N, 22.2833°E)
Time: 07:37:39
(UTC+00:00)

Ariane Rocket - Pass Details

Date: 24 February 2024
Orbit: 757 x 768 km, 98.5° (Epoch: 20 April)

Event Time Altitude Azimuth Distance (km) Brightness Sun altitude
Exits shadow 18:27:50 35° 125° (SE) 1,229 3.5 -18.8°
Maximum altitude 18:29:52 62° 59° (ENE) 869 3.0 -19.0°
Drops below altitude 10° 18:34:55 10° 340° (NNW) 2,323 6.1 -19.5°
Sets 18:37:15 0° 337° (NNW) 3,252 7.0 -19.7°
